Hourly Data Report for September 19, 2017

All times are specified in Local Standard Time (LST). Add 1 hour to adjust for Daylight Saving Time where and when it is observed.

KUGAARUK CLIMATE
NUNAVUT

68°32'15.060" N
89°47'47.020" W
15.80 m
2303094
71407
NBB

Download Data

Hourly Data (September 2017)
Hourly Data Report for September 19, 2017
Temp Definition
°C
Dew Point Temp Definition
°C
Rel Hum Definition
%
Wind Dir Definition
10's deg

Wind Spd Definition
km/h
Visibility Definition
km
Stn Press Definition
kPa
Hmdx Definition


Wind Chill Definition


Weather Definition


TIME
00:00 -0.1 -1.3 92 2 19   101.59   -5 LegendNANA
01:00 0.0 -1.4 91 3 14   101.62   -4 LegendNANA
02:00 0.1 -1.6 89 2 20   101.65     LegendNANA
03:00 -0.4 -2.0 89 4 25   101.67   -6 LegendNANA
04:00 -0.7 -2.2 90 4 20   101.72   -6 LegendNANA
05:00 -0.8 -2.4 89 3 24   101.78   -7 LegendNANA
06:00 -0.6 -2.2 89 4 15   101.83   -5 LegendNANA
07:00 -0.6 -2.4 87 2 23   101.84   -6 LegendNANA
08:00 -0.5 -2.6 86 2 22   101.86   -6 LegendNANA
09:00 -0.6 -2.6 86 3 22   101.90   -6 LegendNANA
10:00 -0.3 -3.0 82 3 17   101.94   -5 LegendNANA
11:00 -0.3 -3.0 82 2 20   101.98   -6 LegendNANA
12:00 0.0 -2.7 82 2 19   102.00   -5 LegendNANA
13:00 0.1 -2.8 81 1 18   102.04     LegendNANA
14:00 0.3 -2.4 82 1 19   102.05     LegendNANA
15:00 0.1 -2.5 83 1 19   102.09     LegendNANA
16:00 -0.5 -2.8 84 2 18   102.12   -6 LegendNANA
17:00 -1.0 -2.8 87 1 17   102.18   -6 LegendNANA
18:00 -0.8 -2.5 88 3 16   102.21   -6 LegendNANA
19:00 -0.4 -2.0 89 4 15   102.23   -5 LegendNANA
20:00 -0.4 -1.9 90 1 17   102.25   -5 LegendNANA
21:00 -0.2 -1.5 90 2 16   102.28   -5 LegendNANA
22:00 0.0 -1.3 91 3 17   102.32   -5 LegendNANA
23:00 -0.1 -1.3 92 3 13   102.36   -4 LegendNANA

Notes on Data Quality.

Legend

  • E = Estimated
  • M = Missing
  • NA = Not Available
  • ‡ = Partner data that is not subject to review by the National Climate Archives
Date modified: